Location: Agendoh
(31.0664°N, 8.9343°W)
Time: 15:13:16
(UTC+00:00)

Cosmos 1151 Rocket - Visible Passes

Search period start: 03 July 2022 00:00
Search period end: 13 July 2022 00:00
Orbit: 592 x 614 km, 82.5° (Epoch: 02 July)

Date Brightness Start Highest point End Pass type
(mag) Time Alt. Az. Time Alt. Az. Time Alt. Az.
03 Jul 5.3 01:59:20 10° NNE 02:01:58 19° ENE 02:01:58 19° ENE visible
03 Jul 4.6 03:36:27 10° NW 03:38:46 21° WNW 03:38:46 21° WNW visible
04 Jul 4.8 02:11:05 10° NNE 02:13:56 29° NE 02:13:56 29° NE visible
04 Jul 5.3 03:50:00 10° NW 03:50:44 12° WNW 03:50:44 12° WNW visible
05 Jul 4.5 02:23:13 10° N 02:25:55 35° NNE 02:25:55 35° NNE visible
06 Jul 4.6 02:35:36 10° N 02:37:55 30° NNW 02:37:55 30° NNW visible
07 Jul 6.0 01:12:47 10° NE 01:13:09 11° NE 01:13:09 11° NE visible
07 Jul 5.0 02:48:15 10° NNW 02:49:57 21° NW 02:49:57 21° NW visible
08 Jul 5.7 01:23:52 10° NNE 01:25:13 16° NE 01:25:13 16° NE visible
08 Jul 5.4 03:01:14 10° NW 03:02:01 14° NW 03:02:01 14° NW visible
09 Jul 5.5 01:35:41 10° NNE 01:37:18 20° NNE 01:37:18 20° NNE visible
10 Jul 5.4 01:47:51 10° N 01:49:24 21° N 01:49:24 21° N visible
11 Jul 5.4 02:00:17 10° NNW 02:01:31 19° NNW 02:01:31 19° NNW visible
12 Jul 5.7 02:12:58 10° NNW 02:13:40 14° NNW 02:13:40 14° NNW visible
